COSMOS 886 DEB, 9655

Orbit data source: Space-Track

COSMOS 886 DEB, 9655 is space debris in LEO originally from a launch on Mon, 27 Dec 1976 UTC launched from the Tyuratam Missile And Space Complex (TTMTR). Debris objects in space refer to the collection of defunct objects orbiting the Earth. Examples of debris include non-operational satellites, rocket bodies, and fragments generated from explosions, collisions, or faulty payload assembly.

Loading next visibility...
Identifier
9655, 1976-126M
Orbit
LEO
Country
Flag of CISCIS
Related business
Manufacturer
Unknown
Mission
Spacecraft
Bus & Motor
Unknown
Mass
Unknown
Launch date (UTC)
1976-12-27 (49 years ago)
Launch vehicle
Unknown
Launch site
Tyuratam Missile And Space Complex (TTMTR)
Object type
Payload
Rocket body
Debris
Shape & HBR
Unknown shape, 0.2 m
Radar Cross Section
Medium (>0.1 m² and <1 m²)

Expand to show TLE details & history
Last TLE update: 17 hours ago

TLE from 17 hours ago
0 COSMOS 886 DEB
1 09655U 76126M   26175.07123213  .00004314  00000-0  78068-3 0  9991
2 09655  65.7866  64.5733 0638692  87.5348 279.8638 13.83548083390381
Epoch: 2026-06-24T01:42Z
TLE epoch observation values (Epoch: 2026-06-24T01:42:34.456Z)
Latitude
0.00009°
Longitude
126.69606°
Altitude
902.555 km
Speed
7.427 km/s
True Right ascension
04h 18m 17s
True Declination
0° 00' 00"
Sunlit
Object was in daylight at epoch
Visualization orbit readout
Latitude
Unknown
Longitude
Unknown
Altitude
Unknown
Speed
Unknown
Apparent Right ascension
Unknown
Apparent Declination
Unknown
Sunlit
N/A
Visualization observer readout
Local Sidereal Time
06:16:25
Azimuth
Unknown
Elevation
Unknown
Doppler factor
Unknown
Orbital elements
Apogee altitude
1,417.868 km
Perigee altitude
481.805 km
Semi-major axis
7,327.973 km
Eccentricity
0.06387
Inclination
65.7866°
RAAN
64.5733°
Arg. of periapsis
87.5348°
True anomaly
272.57295°
Mean anomaly
279.8638°
Eccentric anomaly
276.22595°
Mean motion
3.45993 °/min
Orbital period
104.05 mins
BSTAR
0.00078068
Loading maneuver chart data...
Computing Atmospheric mass density...

Documentation

Showing up to 5 results
|